Regional Weather Roundup
Issued by NWS

Home | Current Version | Previous Version | Graphics & Text | Print | Product List | Glossary On
Versions: 1 2 3 4 5 6 7 8 9 10 11 12 13 14 15 16 17 18 19 20 21 22 23 24 25 26 27 28 29 30 31 32 33 34 35 36 37 38 39 40 41 42 43 44 45 46 47 48 49 50
000
ASUS43 KMKX 180800
RWRWI

WISCONSIN REGIONAL WEATHER ROUNDUP
NATIONAL WEATHER SERVICE MILWAUKEE/SULLIVAN WI
200 AM CST MON DEC 18 2017

NOTE: "FAIR" INDICATES FEW OR NO CLOUDS BELOW 12,000 FEET WITH NO
SIGNIFICANT WEATHER AND/OR OBSTRUCTIONS TO VISIBILITY.

WIZ001-002-006>008-014>016-023>028-180900-
NORTHWEST WISCONSIN

CITY           SKY/WX    TMP DP  RH WIND       PRES   REMARKS
SUPERIOR ARPT  CLOUDY    26  23  91 SW7       29.87F WCI  18
ASHLAND        CLOUDY    27  23  85 SW7       29.87F WCI  19
HAYWARD        CLOUDY    27  24  89 SW5       29.86F FOG     WCI  22
SIREN          CLOUDY    26  24  93 SW7       29.89S FOG     WCI  18
CUMBERLAND     FOG       25  23  93 SW7       29.87F VSB 1   WCI  17
RICE LAKE      CLOUDY    26  26  99 CALM      29.90S FOG
CHETEK         CLOUDY    26  25  99 SW6       29.89S WCI  19
LADYSMITH      CLOUDY    27  27  97 SW8       29.89S FOG     WCI  19
EAU CLAIRE     CLOUDY    27  25  92 SW6       29.90S FOG     WCI  20
MENOMONIE      CLOUDY    27  27  98 SW3       29.91S FOG
NEW RICHMOND   CLOUDY    25  25  97 SW7       29.90S FOG     WCI  18
OSCEOLA        CLOUDY    26  26 100 S3        29.94S FOG
$$

WIZ003>005-009-010-017-018-180900-
NORTH CENTRAL WISCONSIN

CITY           SKY/WX    TMP DP  RH WIND       PRES   REMARKS
MANITOWISH WTR CLOUDY    24  24 100 SW5       29.82F FOG     WCI  18
ARBOR VITAE    CLOUDY    27  26  96 SW6       29.83F FOG     WCI  20
WOODRUFF       CLOUDY    27  26  96 SW6       29.83F FOG     WCI  20
RHINELANDER    FOG       26  26 100 SW5       29.84F VSB 3/4 WCI  20
EAGLE RIVER    CLOUDY    25  25 100 W5        29.82F FOG     WCI  20
LAND O LAKES   CLOUDY    26  25  98 W5        29.83F FOG     WCI  20
PHILLIPS       CLOUDY    25  25 100 SW3       29.85R FOG
TOMAHAWK       CLOUDY    25  24  96 CALM      29.85F FOG
MEDFORD        FOG       25  24  96 SW5       29.86F VSB 1/2 WCI  19
MERRILL        CLOUDY    26  26 100 W5        29.87F FOG     WCI  20
$$

WIZ029-030-035-036-043>047-180900-
CENTRAL WISCONSIN

CITY           SKY/WX    TMP DP  RH WIND       PRES   REMARKS
WAUSAU         CLOUDY    26  26 100 W6        29.86F FOG     WCI  19
MOSINEE        FOG       28  28 100 SW7       29.89F VSB 3/4 WCI  21
MARSHFIELD     CLOUDY    27  26  96 W6        29.86F FOG     WCI  20
STEVENS POINT  CLOUDY    26  26 100 W7        29.90S FOG     WCI  19
WAUPACA        CLOUDY    30  28  91 CALM      29.92S FOG
WAUTOMA        CLOUDY    29  27  92 CALM      29.92F FOG
WISC RAPIDS    CLOUDY    29  27  92 W5        29.91F FOG     WCI  24
CAMP DOUGLAS   NOT AVBL
$$

WIZ011>013-019>022-031-037>040-048>050-180900-
NORTHEAST WISCONSIN

CITY           SKY/WX    TMP DP  RH WIND       PRES   REMARKS
ANTIGO         CLOUDY    25  25 100 W6        29.86S FOG     WCI  18
SHAWANO        CLOUDY    30  28  94 SW3       29.89F FOG
OCONTO         CLOUDY    28  27  99 CALM      29.91F
STURGEON BAY   CLOUDY    28  27  96 SW5       29.91S FOG     WCI  23
GREEN BAY      CLOUDY    29  27  92 SW3       29.92S FOG
MANITOWOC      CLOUDY    30  28  92 W3        29.93S FOG
APPLETON       CLOUDY    30  28  93 W6        29.90S FOG     WCI  24
CLINTONVILLE   CLOUDY    28  27  93 CALM      29.91S FOG
OSHKOSH        CLOUDY    30  28  92 CALM      29.91F FOG
$$

WIZ032>034-041-042-053>061-180900-
SOUTHWEST WISCONSIN

CITY           SKY/WX    TMP DP  RH WIND       PRES   REMARKS
LA CROSSE      CLOUDY    31  29  92 CALM      29.92F FOG
SPARTA         CLOUDY    29  28  96 CALM      29.92F FOG
VIROQUA        CLOUDY    30  30 100 CALM      29.89F VSB 1
BOSCOBEL       CLOUDY    34  30  85 CALM      29.92F FOG
PRAIRIE DU CHI CLOUDY    32  29  88 CALM      29.92F FOG
PLATTEVILLE    CLOUDY    33  33 100 S3        29.90F VSB 1/2
$$

WIZ056-057-062-063-064-067-068-180900-
SOUTH CENTRAL WISCONSIN

CITY           SKY/WX    TMP DP  RH WIND       PRES   REMARKS
REEDSBURG      CLOUDY    31  31 100 CALM      29.91F FOG
BARABOO/DELLS  CLOUDY    31  29  94 CALM      29.90F FOG
LONE ROCK      CLOUDY    34  32  93 CALM      29.92S FOG
MINERAL POINT  FOG       34  34 100 CALM      29.89F VSB 1/2
MADISON        CLOUDY    32  32 100 S3        29.91F FOG
MIDDLETON      CLOUDY    34  34 100 S6        29.90F WCI  29
WATERTOWN      DRZL/FOG  31  31 100 CALM      29.91F VSB 3/4
MONROE         FOG       34  34 100 SW6       29.90F VSB 3/4 WCI  29
JANESVILLE     FOG       34  34 100 CALM      29.92F VSB 3/4
$$

WIZ051-052-058>065-066-070>072-180900-
SOUTHEAST WISCONSIN

CITY           SKY/WX    TMP DP  RH WIND       PRES   REMARKS
MILWAUKEE      LGT RAIN  35  34  96 CALM      29.92F VSB 1
WAUKESHA       DRZL/FOG  32  30  93 CALM      29.92F VSB 3/4
MILWAUKEE/TIMM DRZL/FOG  32  30  93 CALM      29.93S VSB 3/4
RACINE         MIX PCPN  34  34 100 CALM      29.94S VSB 3/4
BURLINGTON     MIX PCPN  46  46 100 CALM      29.92F VSB 1/2
KENOSHA        CLOUDY    36  33  89 CALM      29.93R FOG
FOND DU LAC    CLOUDY    31  28  89 CALM      29.92S FOG
SHEBOYGAN      CLOUDY    30  30 100 CALM      29.91F FOG
WEST BEND      CLOUDY    32  32 100 CALM      29.91F FOG
JUNEAU         MIX PCPN  31  30  98 CALM      29.92S VSB 3/4
$$

LSZ147-162-180900-
LAKE SUPERIOR

STATION/POSITION TIME  TEMP    WIND        PRES    WAVE
                       AIR SEA DIR/SP/G            HT/PER
                 (UTC) (F)     (DEG/KT/KT) (MB)    (FT/S)
DEVILS ISLAND    0700   27     230/ 15/ 19 1012.3F
SAXON HARBOR     0730   28                 1011.2S
$$

LMZ867-665-643>646-180900-
LAKE MICHIGAN

STATION/POSITION TIME  TEMP    WIND        PRES    WAVE
                       AIR SEA DIR/SP/G            HT/PER
                 (UTC) (F)     (DEG/KT/KT) (MB)    (FT/S)
NORTHPORT PIER   0740   31      CALM  /  6 1012.5F
KEWAUNEE LAKESHO 0730   30     280/  5/  7 1012.5F
SHEBOYGAN LAKESH 0700   31     280/  4/  4 1013.9F
PORT WASHINGTON  0740   33     190/  2/  3 1014.2F
MILWAUKEE LAKESH 0730   34     200/  3/  3   N/A
KENOSHA   LAKESH 0700   36     180/  3/  4 1013.9
$$

TC  - TEMPERATURE IN CELSIUS
VSB - VISIBILITY IN STATUTE MILES
WCI - WIND CHILL INDEX
HX  - HEAT INDEX





USA.gov is the U.S. government's official web portal to all federal, state and local government web resources and services.